Stations météo

réclame
Mon MeteoGroup
Kenley, Grande-Bretagne (3781): Température de l'air & dewpoint: 11.12.2018 19:00:00 - 17.12.2018 19:00:00 (GMT)Kenley, Grande-Bretagne (3781): Température de l'air -20cm & Température de l'air -100cm: 11.12.2018 19:00:00 - 17.12.2018 19:00:00 (GMT)Kenley, Grande-Bretagne (3781): Vitesse du vent & gusts: 11.12.2018 19:00:00 - 17.12.2018 19:00:00 (GMT)Kenley, Grande-Bretagne (3781): Direction du vent: 11.12.2018 19:00:00 - 17.12.2018 19:00:00 (GMT)Kenley, Grande-Bretagne (3781): reduced air pressure: 11.12.2018 19:00:00 - 17.12.2018 19:00:00 (GMT)Kenley, Grande-Bretagne (3781): visibility: 11.12.2018 19:00:00 - 17.12.2018 19:00:00 (GMT)Kenley, Grande-Bretagne (3781): Quantités de précipitations: 11.12.2018 19:00:00 - 17.12.2018 19:00:00 (GMT)
Date & Time tt [°C] td [°C] tt -20cm [°C] tt -100cm [°C] ff [km/h] ff [knt] fx [km/h] fx [knt] dd ppp [hPa] vv [km] rr [mm]
17.12.2018 19:00:00 8,5 7,8 - - 15 8 - - SSW 1019,7 12 0,0
17.12.2018 18:00:00 8,2 7,5 - - 13 7 - - SSW 1019,5 12 0,0
17.12.2018 17:00:00 7,9 6,8 - - 13 7 - - SSW 1019,7 15 0,0
17.12.2018 16:00:00 7,6 5,9 - - 8 4 - - S 1019,4 17 0,0
17.12.2018 15:00:00 8,2 6,0 - - 11 6 - - SSW 1019,1 18 0,0
17.12.2018 14:00:00 8,7 6,2 - - 9 5 - - SSW 1019,0 35 0,0
17.12.2018 13:00:00 8,6 5,8 - - 15 8 - - SW 1018,8 28 0,0
17.12.2018 12:00:00 7,7 5,5 - - 15 8 - - SW 1018,9 28 0,0
17.12.2018 11:00:00 7,1 5,2 - - 15 8 - - SW 1018,6 30 0,0
17.12.2018 10:00:00 5,8 4,4 - - 13 7 - - SW 1018,1 29 0,0
17.12.2018 09:00:00 5,0 4,0 5,7 9,0 15 8 - - WSW 1017,5 45 0,0
17.12.2018 08:00:00 3,8 3,2 - - 13 7 - - SW 1016,6 35 0,0
17.12.2018 07:00:00 4,3 3,4 - - 13 7 - - WSW 1015,7 35 0,0
17.12.2018 06:00:00 4,7 3,6 - - 13 7 - - WSW 1014,7 45 0,0
17.12.2018 05:00:00 5,0 4,1 - - 21 11 - - WSW 1013,6 40 0,0
17.12.2018 04:00:00 5,0 3,9 - - 18 10 - - W 1012,8 45 0,0
17.12.2018 03:00:00 4,8 3,5 - - 18 10 - - WSW 1011,9 50 0,2
17.12.2018 02:00:00 5,2 4,0 - - 18 10 - - W 1010,6 50 0,0
17.12.2018 01:00:00 6,0 4,7 - - 21 11 - - W 1009,1 50 0,0
17.12.2018 00:00:00 6,2 4,9 - - 22 12 - - WSW 1008,3 50 0,0
16.12.2018 23:00:00 6,9 5,9 - - 21 11 - - WSW 1007,4 45 0,0
16.12.2018 22:00:00 6,9 6,6 - - 16 9 - - SSW 1006,5 6 0,0
16.12.2018 21:00:00 6,7 6,4 - - 15 8 - - S 1006,0 26 0,6
16.12.2018 20:00:00 6,6 6,1 - - 11 6 - - S 1005,6 9 2,2
16.12.2018 19:00:00 6,8 5,7 - - 18 10 50 27 S 1006,0 8 5,0
16.12.2018 18:00:00 7,8 7,2 - - 9 5 - - SSE 1005,5 4,7 0,2
16.12.2018 17:00:00 7,7 7,0 - - 11 6 - - SSE 1005,8 12 0,0
16.12.2018 16:00:00 7,5 6,6 - - 13 7 - - SSE 1006,1 15 0,0
16.12.2018 15:00:00 7,3 5,9 - - 11 6 - - SSE 1006,4 26 0,0
16.12.2018 14:00:00 7,3 5,9 - - 11 6 - - SSE 1006,6 25 0,0
16.12.2018 13:00:00 7,6 5,5 - - 11 6 - - S 1007,1 19 0,0
16.12.2018 12:00:00 7,6 5,4 - - 8 4 - - S 1007,7 19 0,0
16.12.2018 11:00:00 7,6 5,4 - - 9 5 - - S 1007,9 20 0,0
16.12.2018 10:00:00 6,2 4,7 - - 13 7 - - SSW 1008,4 19 0,0
16.12.2018 09:00:00 4,5 3,8 5,4 9,2 13 7 - - SSW 1007,8 26 0,0
16.12.2018 08:00:00 3,7 3,0 - - 9 5 - - SSW 1007,6 21 0,0
16.12.2018 07:00:00 4,4 3,5 - - 13 7 - - SW 1007,0 27 0,0
16.12.2018 06:00:00 4,5 3,8 - - 15 8 - - SW 1006,8 30 0,0
16.12.2018 05:00:00 4,6 3,9 - - 15 8 - - SSW 1006,4 16 0,0
16.12.2018 04:00:00 5,4 4,3 - - 16 9 - - SW 1005,9 26 0,0
16.12.2018 03:00:00 4,9 3,6 - - 11 6 - - SSW 1006,2 24 0,0
16.12.2018 02:00:00 5,1 4,1 - - 13 7 - - SSW 1005,7 21 0,0
16.12.2018 01:00:00 5,6 4,5 - - 11 6 - - SW 1005,3 20 0,0
16.12.2018 00:00:00 6,2 5,2 - - 15 8 - - SW 1004,7 17 0,0
15.12.2018 23:00:00 6,5 5,8 - - 11 6 - - SW 1004,3 11 0,2
15.12.2018 22:00:00 7,2 6,9 - - 15 8 - - SSW 1003,4 11 0,0
15.12.2018 21:00:00 6,6 6,5 - - 16 9 - - S 1002,8 12 0,0
15.12.2018 20:00:00 4,7 4,6 - - 22 12 - - SSE 1002,9 8 1,0
15.12.2018 19:00:00 3,6 3,2 - - 26 14 52 28 SSE 1003,4 4,7 1,6
15.12.2018 18:00:00 3,2 2,8 - - 28 15 54 29 SSE 1003,8 13 0,8
15.12.2018 17:00:00 2,6 2,3 - - 26 14 52 28 SSE 1005,3 3,6 1,8
15.12.2018 16:00:00 2,0 1,7 - - 28 15 59 32 SSE 1007,0 4,3 2,4
15.12.2018 15:00:00 1,5 1,0 - - 26 14 54 29 SSE 1008,1 3,3 0,6
15.12.2018 14:00:00 1,5 0,6 - - 26 14 52 28 SSE 1009,6 5 0,6
15.12.2018 13:00:00 1,5 0,3 - - 22 12 50 27 SE 1011,4 7 0,2
15.12.2018 12:00:00 1,6 -0,7 - - 26 14 50 27 SSE 1013,1 17 0,0
15.12.2018 11:00:00 1,6 -1,5 - - 21 11 50 27 SSE 1014,9 16 0,0
15.12.2018 10:00:00 1,3 -2,1 - - 21 11 46 25 SSE 1016,5 21 0,0
15.12.2018 09:00:00 0,9 -2,2 5,5 9,5 18 10 - - SE 1017,3 19 0,0
15.12.2018 08:00:00 0,8 -2,5 - - 18 10 - - SSE 1017,8 22 0,0
15.12.2018 07:00:00 0,7 -2,6 - - 16 9 - - SSE 1018,4 25 0,0
15.12.2018 06:00:00 0,1 -2,8 - - 13 7 - - SE 1019,1 19 0,0
15.12.2018 05:00:00 0,1 -3,1 - - 11 6 - - SE 1020,1 19 0,0
15.12.2018 04:00:00 -0,1 -3,6 - - 13 7 - - ESE 1020,7 17 0,0
15.12.2018 03:00:00 0,2 -3,8 - - 11 6 - - ESE 1021,6 23 0,0
15.12.2018 02:00:00 0,2 -3,8 - - 13 7 - - SE 1022,2 15 0,0
15.12.2018 01:00:00 0,4 -4,0 - - 11 6 - - ESE 1022,4 17 0,0
15.12.2018 00:00:00 6,2 5,2 - - 15 8 - - SW 1004,7 17 0,0
14.12.2018 23:00:00 0,7 -4,1 - - 11 6 - - ESE 1023,2 23 0,0
14.12.2018 22:00:00 0,6 -3,6 - - 9 5 - - ESE 1023,8 18 0,0
14.12.2018 21:00:00 0,8 -3,2 - - 9 5 - - SSE 1024,3 20 0,0
14.12.2018 20:00:00 0,8 -2,8 - - 9 5 - - SE 1023,7 22 0,0
14.12.2018 19:00:00 0,5 -2,5 - - 2 1 - - E 1024,2 15 0,0
14.12.2018 18:00:00 0,5 -2,0 - - 4 2 - - ESE 1023,8 15 0,0
14.12.2018 17:00:00 0,6 -2,1 - - 4 2 - - ESE 1024,3 19 0,0
14.12.2018 16:00:00 0,5 -3,0 - - 4 2 - - ESE 1023,9 24 0,0
14.12.2018 15:00:00 2,0 -2,7 - - 8 4 - - SE 1023,3 26 0,0
14.12.2018 14:00:00 2,4 -2,2 - - 8 4 - - S 1023,7 30 0,0
14.12.2018 13:00:00 2,1 -2,2 - - 9 5 - - SE 1023,3 35 0,0
14.12.2018 12:00:00 2,2 -2,0 - - 8 4 - - ESE 1023,9 30 0,0
14.12.2018 11:00:00 1,5 -1,8 - - 5 3 - - SW 1023,8 21 0,0
14.12.2018 10:00:00 1,0 -2,3 - - 5 3 - - E 1022,6 18 0,0
14.12.2018 09:00:00 -0,4 -2,9 6,0 9,7 5 3 - - ESE 1022,2 17 0,0
14.12.2018 08:00:00 -0,5 -2,5 - - 2 1 - - E 1023,0 15 0,0
14.12.2018 07:00:00 -0,5 -2,7 - - 2 1 - - NNE 1022,9 17 0,0
14.12.2018 06:00:00 -0,3 -2,9 - - 2 1 - - W 1022,7 20 0,0
14.12.2018 05:00:00 0,3 -3,3 - - 5 3 - - SSE 1022,2 30 0,0
14.12.2018 04:00:00 -0,4 -3,4 - - 5 3 - - SE 1022,0 26 0,0
14.12.2018 03:00:00 -0,4 -2,8 - - 8 4 - - ESE 1021,8 16 0,0
14.12.2018 02:00:00 0,1 -2,5 - - 9 5 - - E 1021,6 15 0,0
14.12.2018 01:00:00 0,0 -2,3 - - 4 2 - - E 1021,8 17 0,0
14.12.2018 00:00:00 -0,6 -2,6 - - 5 3 - - E 1021,5 16 0,0
13.12.2018 23:00:00 -0,8 -2,7 - - 4 2 - - E 1021,1 16 0,0
13.12.2018 22:00:00 0,0 -2,4 - - 8 4 - - E 1020,7 22 0,0
13.12.2018 21:00:00 0,1 -2,3 - - 9 5 - - E 1020,2 22 0,0
13.12.2018 20:00:00 0,7 -2,0 - - 11 6 - - E 1019,7 23 0,0
13.12.2018 19:00:00 1,0 -1,9 - - 9 5 - - E 1019,2 30 0,0
13.12.2018 18:00:00 1,2 -2,0 - - 13 7 - - E 1018,6 29 0,0
13.12.2018 17:00:00 1,0 -2,7 - - 9 5 - - E 1018,2 40 0,0
13.12.2018 16:00:00 2,1 -3,6 - - 11 6 - - E 1018,0 50 0,0
13.12.2018 15:00:00 3,1 -2,6 - - 13 7 - - E 1017,6 50 0,0
13.12.2018 14:00:00 3,6 -1,8 - - 15 8 - - E 1017,3 50 0,0
13.12.2018 13:00:00 3,9 -1,3 - - 13 7 - - ESE 1017,1 50 0,0
13.12.2018 12:00:00 3,6 -1,3 - - 16 9 - - ESE 1017,2 45 0,0
13.12.2018 11:00:00 3,1 -0,6 - - 16 9 - - ESE 1017,4 30 0,0
13.12.2018 10:00:00 2,6 -0,4 - - 15 8 - - ESE 1017,3 30 0,0
13.12.2018 09:00:00 2,0 -0,1 6,9 9,7 15 8 - - ESE 1017,2 21 0,0
13.12.2018 08:00:00 1,2 -0,3 - - 15 8 - - ESE 1016,7 13 0,0
13.12.2018 07:00:00 1,1 -0,5 - - 13 7 - - ESE 1016,4 12 0,0
13.12.2018 06:00:00 1,3 -0,5 - - 15 8 - - ESE 1016,4 16 0,0
13.12.2018 05:00:00 1,4 0,2 - - 11 6 - - ESE 1016,5 10 0,0
13.12.2018 04:00:00 1,3 0,1 - - 11 6 - - ESE 1017,0 10 0,0
13.12.2018 03:00:00 1,6 0,2 - - 11 6 - - ESE 1017,7 12 0,0
13.12.2018 02:00:00 1,7 0,5 - - 11 6 - - ESE 1018,1 11 0,0
13.12.2018 01:00:00 2,1 0,5 - - 13 7 - - ESE 1018,5 12 0,0
13.12.2018 00:00:00 2,2 0,3 - - 15 8 - - ESE 1018,8 14 0,0
12.12.2018 23:00:00 2,6 0,1 - - 15 8 - - ESE 1019,0 16 0,0
12.12.2018 22:00:00 2,7 -1,4 - - 16 9 - - SE 1019,1 40 0,0
12.12.2018 21:00:00 2,5 -0,5 - - 13 7 - - ESE 1019,9 25 0,0
12.12.2018 20:00:00 3,0 -1,2 - - 15 8 - - ESE 1020,5 45 0,0
12.12.2018 19:00:00 2,3 -2,2 - - 9 5 - - E 1020,9 50 0,0
12.12.2018 18:00:00 2,4 -2,0 - - 8 4 - - ESE 1021,4 50 0,0
12.12.2018 17:00:00 3,0 -2,1 - - 9 5 - - SE 1021,5 50 0,0
12.12.2018 16:00:00 3,6 -2,1 - - 11 6 - - SE 1021,6 45 0,0
12.12.2018 15:00:00 4,7 -1,9 - - 15 8 - - SE 1021,7 45 0,0
12.12.2018 14:00:00 5,4 -1,3 - - 16 9 - - SSE 1022,4 50 0,0
12.12.2018 13:00:00 5,5 1,0 - - 11 6 - - SE 1022,8 50 0,0
12.12.2018 12:00:00 5,4 1,9 - - 13 7 - - SE 1022,8 45 0,0
12.12.2018 11:00:00 6,0 3,7 - - 11 6 - - SE 1023,0 21 0,0
12.12.2018 10:00:00 5,4 4,2 - - 11 6 - - SSE 1023,1 9 0,0
12.12.2018 09:00:00 5,4 4,9 7,5 10,0 9 5 - - SE 1023,3 6 0,2
12.12.2018 08:00:00 5,5 4,9 - - 13 7 - - SSE 1023,1 4,1 0,2
12.12.2018 07:00:00 6,0 4,9 - - 13 7 - - SE 1022,5 10 0,0
12.12.2018 06:00:00 6,1 5,0 - - 11 6 - - SE 1022,3 11 0,0
12.12.2018 05:00:00 6,2 5,1 - - 9 5 - - ESE 1022,3 11 0,0
12.12.2018 04:00:00 6,2 5,1 - - 8 4 - - SE 1022,5 13 0,0
12.12.2018 03:00:00 6,1 5,1 - - 9 5 - - SE 1022,8 12 0,0
12.12.2018 02:00:00 6,2 5,5 - - 8 4 - - SE 1022,8 11 0,0
12.12.2018 01:00:00 6,2 5,6 - - 8 4 - - SE 1022,7 7 0,0
12.12.2018 00:00:00 6,3 5,6 - - 9 5 - - SE 1023,0 8 0,0
11.12.2018 23:00:00 6,2 5,5 - - 9 5 - - SE 1022,7 9 0,0
11.12.2018 22:00:00 5,8 5,1 - - 11 6 - - ESE 1022,8 9 0,0
11.12.2018 21:00:00 5,1 4,3 - - 5 3 - - ESE 1023,3 11 0,0
11.12.2018 20:00:00 5,0 4,1 - - 9 5 - - SE 1023,6 12 0,0
11.12.2018 19:00:00 4,5 3,9 - - 5 3 - - SE 1023,9 9 0,0

tt = Température de l'air
td = dewpoint
tt -20cm = Température de l'air -20cm
tt -100cm = Température de l'air -100cm
ff = Vitesse du vent
fx = gusts
dd = Direction du vent
ppp = reduced air pressure
vv = visibility
rr = Quantités de précipitations

stations d'obs. à proximité